Cheyenne, WY

7:04 AM MST on December 17, 2017 (GMT -0700)
Cheyenne

Weather History for KCYS - April, 2013

Change the Weather History Date:

Sunday, April 21, 2013

  Actual Average Record
Temperature  
Mean Temperature 44 °F 44 °F  
Max Temperature 54 °F 57 °F 82 °F (1960)
Min Temperature 33 °F 32 °F 12 °F (1905)
Degree Days  
Heating Degree Days 21 21  
Month to date heating degree days 662 494  
Since 1 July heating degree days 6525 6414  
Cooling Degree Days 0 0  
Month to date cooling degree days 0 0  
Year to date cooling degree days 0 0  
Moisture  
Dew Point 26 °F    
Average Humidity 57    
Maximum Humidity 85    
Minimum Humidity 28    
Precipitation  
Precipitation 0.00 in 0.06 in 1.21 in (1983)
Month to date precipitation 1.92 1.16  
Year to date precipitation 3.43 3.01  
Snow  
Snow 0.00 in 0.30 in 7.00 in (1933)
Month to date snowfall 27.9 8.0  
Since 1 July snowfall 73.1 55.8  
Snow Depth 0.00 in    
Sea Level Pressure  
Sea Level Pressure 29.98 in    
Wind  
Wind Speed 12 mph (West)    
Max Wind Speed 28 mph    
Max Gust Speed 32 mph    
Visibility 10 miles    
Events      
T = Trace of Precipitation, MM = Missing Value Source: NWS Daily Summary

Daily Weather History Graph

Daily Weather History Graph

Search for Another Location

Airport or City:

Trip Planner

Search our weather history database for the weather conditions in past years. The results will help you decide how hot, cold, wet, or windy it might be!

Date:

Astronomy

Apr. 21, 2013 Rise Set
Actual Time 6:10 AM MDT 7:46 PM MDT
Civil Twilight 5:41 AM MDT 8:15 PM MDT
Nautical Twilight 5:06 AM MDT 8:50 PM MDT
Astronomical Twilight 4:28 AM MDT 9:27 PM MDT
Moon 3:31 PM MDT (4/21) 3:36 AM MDT (4/21)
Length of Visible Light 14h 33m
Length of Day
13h 35m
Waxing Gibbous, 80% of the Moon is Illuminated
Apr 21
Waxing Gibbous
Apr 25
Full
May 2
Last Quarter
May 9
New
May 17
First Quarter

Hourly Weather History & Observations

Time (MDT) Temp. Windchill Dew Point Humidity Pressure Visibility Wind Dir Wind Speed Gust Speed Precip Events Conditions
12:53 AM 37.0 °F 31.0 °F 28.0 °F 70% 29.96 in 10.0 mi West 8.1 mph - N/A   Partly Cloudy
1:53 AM 37.0 °F 28.9 °F 28.0 °F 70% 29.95 in 10.0 mi West 12.7 mph - N/A   Clear
2:53 AM 34.0 °F 27.2 °F 27.0 °F 75% 29.99 in 10.0 mi West 8.1 mph - N/A   Clear
3:53 AM 35.1 °F 28.6 °F 26.1 °F 70% 29.99 in 10.0 mi West 8.1 mph - N/A   Clear
4:53 AM 34.0 °F 26.0 °F 25.0 °F 70% 30.01 in 10.0 mi West 10.4 mph - N/A   Clear
5:53 AM 34.0 °F 28.0 °F 25.0 °F 70% 30.02 in 10.0 mi WNW 6.9 mph - N/A   Clear
6:53 AM 37.0 °F 28.5 °F 25.0 °F 62% 30.01 in 10.0 mi West 13.8 mph - N/A   Clear
7:53 AM 39.9 °F 32.9 °F 26.1 °F 58% 30.03 in 10.0 mi West 11.5 mph - N/A   Clear
8:53 AM 43.0 °F 35.7 °F 27.0 °F 53% 30.02 in 10.0 mi West 15.0 mph - N/A   Clear
9:53 AM 46.0 °F 37.8 °F 26.1 °F 46% 30.01 in 10.0 mi West 23.0 mph 29.9 mph N/A   Clear
10:53 AM 46.9 °F - 25.0 °F 42% 30.03 in 10.0 mi West 19.6 mph 25.3 mph N/A   Clear
11:53 AM 48.0 °F - 25.0 °F 41% 30.01 in 10.0 mi West 16.1 mph - N/A   Clear
12:53 PM 50.0 °F - 24.1 °F 36% 29.98 in 10.0 mi West 17.3 mph 26.5 mph N/A   Clear
1:53 PM 51.1 °F - 21.0 °F 31% 29.97 in 10.0 mi WNW 18.4 mph 24.2 mph N/A   Clear
2:53 PM 52.0 °F - 19.0 °F 27% 29.97 in 10.0 mi West 17.3 mph 23.0 mph N/A   Clear
3:53 PM 51.1 °F - 21.0 °F 31% 29.96 in 10.0 mi West 18.4 mph 24.2 mph N/A   Partly Cloudy
4:53 PM 51.1 °F - 21.0 °F 31% 29.96 in 10.0 mi West 13.8 mph - N/A   Clear
5:53 PM 48.0 °F - 23.0 °F 37% 29.97 in 10.0 mi West 11.5 mph - N/A   Overcast
6:53 PM 48.0 °F - 25.0 °F 41% 29.95 in 10.0 mi WNW 10.4 mph - N/A   Overcast
7:53 PM 43.0 °F 40.3 °F 27.0 °F 53% 29.96 in 10.0 mi West 4.6 mph - N/A   Clear
8:53 PM 41.0 °F 37.1 °F 28.0 °F 60% 29.96 in 10.0 mi SW 5.8 mph - N/A   Partly Cloudy
9:53 PM 35.1 °F 31.0 °F 27.0 °F 72% 29.98 in 10.0 mi SSW 4.6 mph - N/A   Mostly Cloudy
10:53 PM 39.9 °F - 32.0 °F 73% 29.94 in 10.0 mi North - - N/A   Overcast
11:53 PM 37.9 °F 32.7 °F 33.1 °F 83% 29.93 in 10.0 mi SSW 6.9 mph - N/A   Overcast